星链-36337(STARLINK-36337)

导读

STARLINK-36337(NORAD编号68716)是SpaceX星链(Starlink)星座中的一颗低轨互联网卫星,作为全球规模最大低轨卫星互联网星座的组成部分,运行于距离地面约550公里的近地轨道。 该卫星采用扁平化设计,适配SpaceX批量发射方案,依托星链组网为全球提供高速低延迟宽带互联网服务,可满足流媒体、视频通话、偏远地区联网等多场景需求,也支撑了星链手机直连等拓展服务的部署,延续了星链模块化、轻量小型化的设计特点,服务于全球覆盖的天基通信网络建设。

基本信息
目录编号:
68716
目录名称:
STARLINK-36337
国际标识:
2026-081T
轨道中心:
EARTH
卫星名称:
星链-36337
卫星全名:
星链-36337(STARLINK-36337)
卫星状态:
在轨 (已飞行151 天)
发射日期:
2026-04-14 UTC
国别 :
美国 (US)
星等 :
--
该卫星已列入 空间交会检测服务 Space Conjunction Data Service (SCDS) ,当前飞行风险评估等级: 无高风险
轨道信息
数据来源 国际轨道数据
星历时间: 2026-09-11T08:27:52+0800
1天前
查看轨道信息
半长轴: 6840.811km
偏心率: 0.0001249
轨道倾角: 53.157°
近地点辐角 100.413°
升交点赤经 250.004°
平近点角 259.701°
近地点: 461.819km
远地点: 463.529km
周期: 93.847分钟
每日圈数: 15.344099
详细信息
固有亮度:
5
最大亮度:
2.5
卫星平台:
Starlink V1.0
覆盖范围:
全球
运营商:
太空探索技术公司
运营商所在国:
美国
制造商(研发单位):
太空探索技术公司
制造商所在国:
美国
使用方式:
暂无
卫星简介
Starlink 计划是 SpaceX 推出的全球卫星互联网项目,通过发射低轨道卫星,为全球尤其是偏远地区提供高速、低延迟的互联网服务。自 2019 年起,Starlink 已部署数千颗卫星,旨在缩小全球数字鸿沟,推动互联网普及。该项目还为军事、航空等行业提供通信支持,带来广泛经济效益。
2D轨道图
3D轨道图
轨道高度分析图
轨道倾角分析图
轨道综合分析图
查看轨道综合分析图
交会数据列表
事件ID 空间交会对象 最接近时刻(TCA) 交会距离 交会风险概率(CRP) 交会风险指数(CRI) 操作
CDM_260914-022605-210106-871621
2026-09-14T
02:26:03+0000
0.883 km
远距离
2.587505E-5 中风险 0.63
CDM_260914-031205-210006-871621
2026-09-14T
03:12:32+0000
1.386 km
极远距离
5.320318E-6 低风险 0.5
CDM_260914-044605-210006-871621
2026-09-14T
04:46:20+0000
1.703 km
极远距离
2.798217E-6 低风险 0.44
CDM_260914-090905-372306-871621
2026-09-14T
09:09:31+0000
2.502 km
极远距离
1.437206E-6 低风险 0.38
与全量物体交会距离演化趋势
与全量物体交会风险概率演化趋势